This demonstration page uses our WeatherBlox Daily Observations layout. Learn more.

Left ArrowRight Arrow

Hourly Observations for January 4, 2017

Temp ( °F °C ) Dew Point ( °F °C ) Humidity (%) Winds ( mph kmh ) Pressure ( in mb ) Visibility ( mi km ) Precip ( " mm )
12:15 am 00:15 Cloudy 8 -13.2 2 -16.7 75 75 N 9 15 30.53 1034 10 16 0.00 0.00
12:35 am 00:35 Cloudy 9 -12.8 2 -16.8 72 72 N 10 17 30.53 1034 10 16 0.00 0.00
12:55 am 00:55 Cloudy 9 -12.7 1 -17 70 70 N 10 17 30.53 1034 10 16 0.00 0.00
1:15 am 01:15 Cloudy 9 -12.6 1 -17.5 67 67 N 9 15 30.53 1034 10 16 0.00 0.00
1:35 am 01:35 Cloudy 9 -12.6 0 -17.9 65 65 N 10 17 30.53 1034 10 16 0.00 0.00
1:55 am 01:55 Cloudy 9 -12.6 0 -17.9 65 65 N 13 20 30.48 1032 10 16 0.00 0.00
2:15 am 02:15 Cloudy 9 -13 0 -17.8 68 68 N 12 19 30.50 1033 10 16 0.00 0.00
2:35 am 02:35 Cloudy 8 -13.1 1 -17.5 70 70 N 10 17 30.50 1033 10 16 0.00 0.00
2:55 am 02:55 Cloudy 8 -13.1 0 -18 67 67 N 10 17 30.53 1034 10 16 0.00 0.00
3:15 am 03:15 Cloudy 8 -13.2 0 -17.8 69 69 N 9 15 30.50 1033 10 16 0.00 0.00
3:35 am 03:35 Cloudy 8 -13.2 1 -17.1 73 73 N 8 13 30.50 1033 10 16 0.00 0.00
3:55 am 03:55 Cloudy with Light Snow 8 -13.1 2 -16.5 76 76 NNW 5 7 30.53 1034 7 11 0.00 0.00
4:15 am 04:15 Cloudy with Light Snow 8 -13.1 2 -16.5 76 76 N 7 11 30.53 1034 7 11 0.00 0.00
4:35 am 04:35 Cloudy 8 -13.1 3 -16.1 78 78 N 8 13 30.50 1033 10 16 0.00 0.00
4:55 am 04:55 Cloudy with Light Snow 8 -13.1 3 -16.3 77 77 N 7 11 30.50 1033 7 11 0.00 0.00
5:15 am 05:15 Cloudy with Light Snow 9 -13 3 -16 78 78 N 6 9 30.50 1033 5 8 0.00 0.00
5:35 am 05:35 Cloudy with Light Snow 9 -13 4 -15.8 80 80 N 6 9 30.50 1033 7 11 0.00 0.00
5:55 am 05:55 Cloudy with Light Snow 8 -13.5 3 -16.1 81 81 N 6 9 30.50 1033 7 11 0.00 0.00
6:15 am 06:15 Cloudy 8 -13.5 3 -16.1 81 81 NNE 7 11 30.48 1032 10 16 0.00 0.00
6:35 am 06:35 Mostly Cloudy with Light Snow 7 -13.8 2 -16.5 80 80 N 3 6 30.50 1033 10 16 0.00 0.00
6:55 am 06:55 Partly Cloudy with Scattered Snow Showers 7 -14.1 2 -16.5 82 82 N 3 6 30.50 1033 10 16 0.00 0.00
7:15 am 07:15 Mostly Cloudy with Light Snow 6 -14.5 2 -16.6 84 84 Calm 30.50 1033 10 16 0.00 0.00
7:35 am 07:35 Cloudy 7 -13.8 3 -16 84 84 Calm 30.50 1033 10 16 0.00 0.00
7:55 am 07:55 Cloudy 8 -13.5 4 -15.6 84 84 Calm 30.48 1032 10 16 0.00 0.00
8:15 am 08:15 Cloudy with Light Snow 8 -13.5 4 -15.8 83 83 Calm 30.48 1032 10 16 0.00 0.00
8:35 am 08:35 Cloudy with Light Snow 8 -13.2 4 -15.8 81 81 NNW 3 6 30.48 1032 10 16 0.00 0.00
8:55 am 08:55 Cloudy with Light Snow 8 -13.1 3 -16 79 79 Calm 30.48 1032 10 16 0.00 0.00
9:15 am 09:15 Cloudy with Light Snow 9 -13 3 -16.2 77 77 Calm 30.45 1031 7 11 0.00 0.00
9:35 am 09:35 Cloudy with Light Snow 9 -12.7 3 -16 77 77 NNE 6 9 30.42 1030 7 11 0.00 0.00
9:55 am 09:55 Cloudy with Light Snow 9 -12.6 3 -16 76 76 NNE 7 11 30.45 1031 10 16 0.00 0.00
10:15 am 10:15 Cloudy with Light Snow 10 -12.5 3 -16 75 75 NNE 6 9 30.42 1030 10 16 0.00 0.00
10:35 am 10:35 Cloudy with Light Snow 10 -12.1 4 -15.7 75 75 NE 8 13 30.42 1030 7 11 0.00 0.00
10:55 am 10:55 Cloudy with Light Snow 10 -12 4 -15.6 75 75 NNE 6 9 30.42 1030 2 3 0.00 0.00
11:15 am 11:15 Cloudy with Light Snow 10 -12 4 -15.7 74 74 ENE 6 9 30.42 1030 4 6 0.00 0.00
11:35 am 11:35 Cloudy with Light Snow 10 -12 4 -15.5 75 75 NE 6 9 30.42 1030 3 4 0.00 0.00
11:50 am 11:50 Cloudy with Light Snow 10 -12.2 4 -15.8 75 75 NE 5 7 30.42 1030 2 3 0.00 0.00
12:15 pm 12:15 Cloudy with Light Snow 10 -12.2 4 -15.8 75 75 NE 8 13 30.39 1029 10 16 0.00 0.00
12:35 pm 12:35 Cloudy with Light Snow 10 -12.1 4 -15.4 77 77 NNE 7 11 30.36 1028 2 3 0.00 0.00
12:55 pm 12:55 Cloudy with Light Snow 10 -12.1 4 -15.3 77 77 NE 7 11 30.36 1028 3 4 0.00 0.00
1:15 pm 13:15 Cloudy with Light Snow 10 -12 5 -15 79 79 NE 7 11 30.36 1028 3 5 0.00 0.00
1:35 pm 13:35 Cloudy 11 -11.9 5 -15.2 77 77 NE 5 7 30.36 1028 7 11 0.00 0.00
1:55 pm 13:55 Cloudy 10 -12 4 -15.6 75 75 NE 7 11 30.36 1028 10 16 0.00 0.00
2:15 pm 14:15 Cloudy with Light Snow 11 -11.8 5 -15.1 77 77 ENE 7 11 30.33 1027 7 11 0.00 0.00
2:35 pm 14:35 Cloudy with Light Snow 10 -12 4 -15.4 76 76 NE 8 13 30.33 1027 10 16 0.00 0.00
2:55 pm 14:55 Cloudy with Light Snow 10 -12 4 -15.4 76 76 NE 10 17 30.30 1026 7 11 0.00 0.00
3:15 pm 15:15 Cloudy with Light Snow 10 -12 4 -15.5 75 75 NE 8 13 30.30 1026 10 16 0.00 0.00
3:35 pm 15:35 Cloudy with Light Snow 10 -12 4 -15.6 75 75 NE 7 11 30.33 1027 10 16 0.00 0.00
4:15 pm 16:15 Cloudy with Light Snow 10 -12.1 4 -15.5 76 76 NE 7 11 30.33 1027 7 11 0.00 0.00
4:35 pm 16:35 Cloudy with Light Snow 10 -12.1 4 -15.4 77 77 NE 8 13 30.33 1027 3 5 0.00 0.00
4:55 pm 16:55 Cloudy with Light Snow 10 -12 5 -15 79 79 NNE 7 11 30.33 1027 5 8 0.00 0.00
5:15 pm 17:15 Cloudy with Light Snow 10 -12.1 5 -15.1 79 79 NE 9 15 30.33 1027 3 5 0.00 0.00
5:35 pm 17:35 Cloudy with Light Snow 10 -12.2 5 -15 80 80 NNE 8 13 30.30 1026 3 4 0.00 0.00
5:55 pm 17:55 Cloudy with Light Snow 10 -12.3 5 -15 80 80 NNE 8 13 30.33 1027 2 3 0.00 0.00
6:15 pm 18:15 Cloudy with Light Snow 10 -12.3 6 -14.6 83 83 NNE 7 11 30.33 1027 3 4 0.00 0.00
6:35 pm 18:35 Cloudy with Light Snow 10 -12.2 6 -14.4 84 84 NNE 8 13 30.33 1027 2 3 0.00 0.00
6:55 pm 18:55 Cloudy with Light Snow 10 -12.2 6 -14.4 84 84 NNE 9 15 30.33 1027 3 5 0.00 0.00
7:15 pm 19:15 Cloudy with Light Snow 10 -12.5 6 -14.6 84 84 NNE 7 11 30.36 1028 4 6 0.00 0.00
7:35 pm 19:35 Cloudy with Light Snow 10 -12.5 5 -14.8 83 83 NNE 8 13 30.33 1027 2 3 0.00 0.00
7:55 pm 19:55 Cloudy with Light Snow 9 -12.6 5 -14.9 83 83 N 8 13 30.36 1028 3 5 0.00 0.00
8:15 pm 20:15 Cloudy with Light Snow 10 -12.5 6 -14.7 84 84 NNE 6 9 30.36 1028 2 2 0.00 0.00
8:35 pm 20:35 Cloudy with Light Snow 10 -12.5 6 -14.5 85 85 N 3 6 30.36 1028 4 6 0.00 0.00
8:55 pm 20:55 Cloudy with Light Snow 10 -12.5 6 -14.6 84 84 N 6 9 30.36 1028 3 4 0.00 0.00
9:15 pm 21:15 Cloudy with Light Snow 10 -12.5 6 -14.5 85 85 NNE 6 9 30.33 1027 3 5 0.00 0.00
9:35 pm 21:35 Cloudy with Light Snow 9 -12.6 6 -14.6 85 85 N 7 11 30.36 1028 2 3 0.00 0.00
9:55 pm 21:55 Cloudy with Light Snow 8 -13.3 4 -15.4 84 84 NNE 5 7 30.33 1027 4 6 0.00 0.00
10:15 pm 22:15 Cloudy with Light Snow 6 -14.5 2 -16.5 85 85 Calm 30.39 1029 5 8 0.00 0.00
10:35 pm 22:35 Partly Cloudy with Scattered Snow Showers 6 -14.7 2 -16.5 86 86 N 3 6 30.39 1029 5 8 0.01 0.25
10:55 pm 22:55 Clear with Light Snow 4 -15.5 1 -17.4 86 86 N 5 7 30.39 1029 5 8 0.01 0.25
11:15 pm 23:15 Clear with Light Snow 4 -15.5 1 -17.4 86 86 N 3 6 30.39 1029 4 6 0.00 0.00
11:35 pm 23:35 Clear -1 -18.2 -4 -20.2 84 84 Calm 30.42 1030 7 11 0.00 0.00
11:55 pm 23:55 Clear with Light Snow -2 -19 -6 -21.1 84 84 WNW 3 6 30.42 1030 10 16 0.00 0.00

Powered by AerisWeather